Location: Hamilton
(37.7830°S, 175.2830°E)
Time: 23:44:05
(UTC+13:00)

USA 32 - Pass Details

Date: 24 January 2019
Orbit: 776 x 784 km, 85.0° (Epoch: 17 February)

Event Time Altitude Azimuth Distance (km) Brightness Sun altitude
Rises 21:30:14 0° 352° (N) 3,247 7.0 -9.8°
Reaches altitude 10° 21:32:35 10° 350° (N) 2,329 6.3 -10.1°
Maximum altitude 21:37:48 73° 265° (W) 826 4.3 -11.0°
Drops below altitude 10° 21:43:06 10° 180° (S) 2,364 7.0 -11.8°
Sets 21:45:30 0° 178° (S) 3,301 7.8 -12.2°
